Погода Нижний Новгород

Погода Нижний Новгород : погода сейчас, прогноз погоды и архив. Всё, что Вы хотите узнать о погоде Нижний Новгород!

Хотите узнать прогноз погоды в Нижнем Новгороде? Тогда Вам сюда: Погода в Нижнем Новгороде

Поиск расширенной информации на нашем сайте:

Другие новости

Новости СМИ2

Главная страница сайта

Новости сайта

03.07.2017

Напоминаем, что на нашем специализированном сайте Метеоцентр.Азия вы можете получить высокодетализированные автоматические прогнозы погоды по пунктам России, СНГ и мира в авиационном формате (включающие направление и скорость ветра, видимость, явления погоды, количество и форму облачности, нижнюю и верхнюю границу облачности).

Рекомендуем: Пуллер макси для собак: puller maxi игрушка для собак пуллер макси.

Погода Нижний Новгород - сегодня

Время (UTC), дата Ветер
(°,м/с) 
Видим.   Явления Облачность Т
(°С)
Тd
(°С)
f(%) Тe
(°С)
Pmin
(гПа)
dP
(гПа)
Po
(мм)
O2
(г/м3)
Тmin Tmax R s Состояние
почвы
09 18.07.17 270 (З) 2-5{05}  10 км    9/3 600 м кучево-дожд., средняя, верхняя 
[Cb cap|Ac trans|Cc]
+19.2 +11.8 62 +24  1015.1  -0.3  748  279           
12 18.07.17 300 (СЗ) 1-4{06}  10 км    1/1 1000 м 
[Cu hum]
+21.4 +9.8 48 +22  1014.6  -0.4  747  277           
15 18.07.17 тихо () -2{05}  10 км    1/1 1000 м 
[Cu hum]
+22.2 +11.3 50 +25  1013.8  -0.7  747  276    +22.6       
18 18.07.17 тихо () -2{04}  10 км    1/1 1000 м 
[Sc diur, vesp]
+18.9 +11.4 62 +22  1014.7  0.7  747  279           
21 18.07.17 тихо () -1{04}  10 км    6/6 1000 м 
[Sc diur, vesp]
+18.9 +11.9 64 +23  1014.7  747  279           
00 19.07.17 тихо () -1{03}  10 км    8/8 1000 м 
[Sc diur, vesp]
+15.9 +13 83 +21  1014.8  747  282           
03 19.07.17 тихо () -1{02}  10 км    1/1 1000 м 
[Sc diur, vesp]
+16.3 +13.6 84 +23  1015.1  0.3  747  281  +14.3        сухая 
06 19.07.17 230 (ЮЗ) 1-4{04}  10 км    1/1 1000 м 
[Cu hum]
+19.8 +13.9 69 +28  1015.3  0.4  748  278           
09 19.07.17 190 (Ю) 2-4{06}  10 км    8/6 600 м кучево-дожд., средняя 
[Cb cap|Ac trans]
+22.9 +13 54 +28  1015  -0.1  748  275           
12 19.07.17 270 (З) 2-4{06}  10 км    8/8 1000 м 
[Cu hum]
+22.9 +13 54 +28  1014.4  -0.6  747  275           
15 19.07.17 270 (З) 1-4{06}  10 км    8/6 1000 м кучево-дожд., верхняя 
[Cb cap|Ci sp]
+22.1 +11.1 50 +25  1014.1  -0.4  747  276    +24       
18 19.07.17 тихо () -0{07}  10 км    4/0 средняя 
[Ac trans]
+18.2 +12.3 68 +23  1015.3  748  280           
21 19.07.17 тихо () -0{03}  10 км    ясно 
+15.9 +12.1 78 +20  1015.5  748  282           
00 20.07.17 тихо () -0{02}  10 км    3/0 средняя 
[Ac trans]
+13.3 +11.7 90 +17  1015.9  0.2  748  285           
03 20.07.17 тихо () -0{02}  10 км    9/0 средняя 
[Ac trans]
+15.8 +13.3 85 +22  1015.7  748  282  +12.8        сухая 
06 20.07.17 270 (З) 2-3{03}  10 км    4/0 средняя 
[Ac trans]
+20.1 +12.3 61 +25  1015.5  0.1  748  278           
09 20.07.17 220 (ЮЗ) 1-4{04}  10 км    8/3 1000 м средняя 
[Cu hum|Ac trans]
+21.5 +11.2 52 +24  1015.1  -0.4  748  277           
12 20.07.17 200 (Ю) 2-5{05}  10 км    4/3 1000 м средняя 
[Cu med, cong|Ac trans]
+23.5 +11 45 +26  1013.9  -1  747  275           
15 20.07.17 220 (ЮЗ) 1-2{06}  10 км  в посл. час ливневой дождь  9/6 600 м кучево-дожд., средняя 
[Cb cap|Ac trans]
+19.1 +15.4 79 +30  1013.9  -0.2  747  278    +24  0.1     
18 20.07.17 тихо () -0{02}  10 км  {ливн. осадки}  8/0 средняя 
[Ac cuf]
+17.4 +13.7 79 +24  1014  747  280           
21 20.07.17 тихо () -0{01}  10 км    9/6 1000 м средняя 
[Sc diur, vesp|Ac trans]
+16.6 +13.7 83 +23  1013.9  -0.2  747  281           
00 21.07.17 тихо () -0{01}  10 км    9/9 1000 м 
[Sc]
+14.5 +12.9 90 +20  1013.5  -0.5  746  283           
03 21.07.17 тихо () -0{02}  10 км    10/0 верхняя 
[Cc]
+16.3 +14.4 89 +24  1013.4  746  281  +14.2        сухая 
06 21.07.17 тихо () -0{03}  10 км    3/0 верхняя 
[Cc]
+21.3 +12.9 59 +27  1012.7  -0.4  746  276           
09 21.07.17 240 (ЮЗ) 2-5{06}  10 км    8/8 600 м 
[Cu med, cong]
+23 +10.5 45 +25  1011.6  -1.1  745  275           
Время (UTC), дата Ветер
(°,м/с) 
Видим.   Явления Облачность Т
(°С)
Тd
(°С)
f(%) Тe
(°С)
Pmin
(гПа)
dP
(гПа)
Po
(мм)
O2
(г/м3)
Тmin Tmax R s Состояние
почвы

Для получения пояснительной информации подведите курсор к названию столбца.

ПОГОДА Нижний Новгород - архив

Всё, что Вы хотите узнать о погоде Нижний Новгород - удобно и подробно!

Выберите нужную дату (начиная с 1 января 2015* года) и нажмите кнопку "Найти".
Будут отображены архивные сводки погоды по пункту Нижний Новгород, начиная с указанной даты.


Отображать данные в формате CSV (для использования в таблицах Excel)


Внимание! Наш архив погоды предназначен исключительно для личного некоммерческого использования в познавательных целях. Если Вам необходимы официальные справки о состоянии погоды (для производственных, юридических, коммерческих и т.п. целей), обращайтесь в органы Росгидромета.

*Примечание: данная дата относится к архиву по метеостанциям СССР (Россия, СНГ, Балтия).
Архив по метеостанциям Зарубежной Европы и Азии (кроме Китая) хранится 10 дней, по другим регионам земного шара (Китай, Африка, Америка, Австралия, Океания) - 1 день.

Нижний Новгород - район местоположения метеостанции


Название, широта, долгота, высота метеостанции:
Нижний Новгород (Мыза) 56.3°ш. 44°д. 157 м над ур. моря [Российская Федерация]

Дополнительная информация

В oтличие oт бoльшинства пoгoдных сайтoв мы публикуем пoдрoбную метеoинфoрмацию в детальнoм прoфессиoнальнoм фoрмате.

Характеристики температуры и влажнoсти вoздуха измеряются на высoте 2 м в тени вдали oт зданий и деревьев.
Скoрoсть ветра измеряется на высoте 10 м (на урoвне рoста челoвека скoрoсть ветра ниже в 1.5-2 раза). Если метеoстанция нахoдится в гoрoде или в лесу, тo скoрoсть ветра занижена на 2-4 м/с пo сравнению с oткрытым местoм. Скoрoсть ветра над акватoриями крупных рек и oзёр, а также на вершинах хoлмoв на 2-5 м/с выше, чем в oбычных услoвиях.
Атмoсфернoе давление в разных тoчках местнoсти мoжет значительнo oтличаться oт давления на метеoстанции, в зависимoсти oт услoвий рельефа (при пoдъёме на 10 м давление пoнижается примернo на 1 мм рт.ст.).